TimeCDT,TemperatureF,Dew PointF,Humidity,Sea Level PressureIn,VisibilityMPH,Wind Direction,Wind SpeedMPH,Gust SpeedMPH,PrecipitationIn,Events,Conditions,WindDirDegrees,DateUTC
12:15 AM,68.9,68.5,99,30.06,7.0,NNW,3.5,-,0.04,Rain,Rain,330,2013-07-07 05:15:00
12:35 AM,68.5,68.4,99,30.05,10.0,WNW,5.8,-,0.05,Rain,Light Rain,300,2013-07-07 05:35:00
12:55 AM,68.2,68.0,99,30.06,10.0,WNW,5.8,-,0.05,,Scattered Clouds,300,2013-07-07 05:55:00
1:15 AM,68.2,67.8,99,30.06,10.0,NNW,3.5,-,N/A,,Clear,340,2013-07-07 06:15:00
1:35 AM,67.3,67.3,100,30.06,10.0,North,3.5,-,N/A,,Clear,350,2013-07-07 06:35:00
1:55 AM,66.7,66.7,100,30.05,10.0,Calm,Calm,-,N/A,,Clear,0,2013-07-07 06:55:00
2:15 AM,66.4,66.4,100,30.06,5.0,Calm,Calm,-,N/A,,Clear,0,2013-07-07 07:15:00
2:35 AM,66.2,66.2,100,30.06,2.0,Calm,Calm,-,N/A,,Clear,0,2013-07-07 07:35:00
2:55 AM,65.3,65.3,100,30.06,1.5,Calm,Calm,-,N/A,,Mostly Cloudy,0,2013-07-07 07:55:00
3:15 AM,65.5,65.5,100,30.06,1.2,Calm,Calm,-,N/A,,Mostly Cloudy,0,2013-07-07 08:15:00
3:35 AM,65.3,65.3,100,30.06,2.0,Calm,Calm,-,N/A,,Mostly Cloudy,0,2013-07-07 08:35:00
3:55 AM,64.4,64.4,100,30.07,0.5,Calm,Calm,-,N/A,Fog,Fog,0,2013-07-07 08:55:00
4:15 AM,64.6,64.6,100,30.07,1.0,Calm,Calm,-,N/A,,Mostly Cloudy,0,2013-07-07 09:15:00
4:35 AM,64.6,64.6,100,30.07,1.0,Calm,Calm,-,N/A,,Mostly Cloudy,0,2013-07-07 09:35:00
4:55 AM,64.4,64.4,100,30.07,2.5,Calm,Calm,-,N/A,,Clear,0,2013-07-07 09:55:00
5:15 AM,64.8,64.8,100,30.07,7.0,Calm,Calm,-,N/A,,Clear,0,2013-07-07 10:15:00
5:35 AM,64.4,64.4,100,30.08,5.0,Calm,Calm,-,N/A,,Clear,0,2013-07-07 10:35:00
5:55 AM,64.4,64.4,100,30.09,4.0,Calm,Calm,-,N/A,,Clear,0,2013-07-07 10:55:00
6:15 AM,65.1,65.1,100,30.09,5.0,Calm,Calm,-,N/A,,Scattered Clouds,0,2013-07-07 11:15:00
6:35 AM,65.8,65.8,100,30.10,7.0,Calm,Calm,-,N/A,,Mostly Cloudy,0,2013-07-07 11:35:00
6:55 AM,66.6,66.6,100,30.10,7.0,Calm,Calm,-,N/A,,Overcast,0,2013-07-07 11:55:00
7:15 AM,67.1,67.1,100,30.10,10.0,SSE,3.5,-,N/A,,Overcast,160,2013-07-07 12:15:00
7:35 AM,68.2,68.2,100,30.11,10.0,Calm,Calm,-,N/A,,Scattered Clouds,0,2013-07-07 12:35:00
7:55 AM,69.8,68.4,95,30.12,10.0,SSW,4.6,-,N/A,,Clear,210,2013-07-07 12:55:00
8:15 AM,70.2,68.4,94,30.13,10.0,Calm,Calm,-,N/A,,Mostly Cloudy,0,2013-07-07 13:15:00
8:35 AM,71.4,69.3,93,30.13,10.0,SSW,3.5,-,N/A,,Overcast,200,2013-07-07 13:35:00
8:55 AM,72.7,70.0,91,30.13,10.0,Calm,Calm,-,N/A,,Overcast,0,2013-07-07 13:55:00
9:15 AM,73.6,70.3,90,30.13,10.0,Calm,Calm,-,N/A,,Overcast,0,2013-07-07 14:15:00
9:35 AM,74.5,70.5,87,30.13,10.0,West,3.5,-,N/A,,Overcast,260,2013-07-07 14:35:00
9:55 AM,75.9,71.1,85,30.13,10.0,WSW,5.8,-,N/A,,Overcast,240,2013-07-07 14:55:00
10:15 AM,76.8,71.8,84,30.13,10.0,WSW,6.9,-,N/A,,Mostly Cloudy,240,2013-07-07 15:15:00
10:35 AM,78.4,72.9,83,30.13,10.0,SW,6.9,-,N/A,,Overcast,230,2013-07-07 15:35:00
10:55 AM,79.0,73.2,82,30.13,10.0,WSW,3.5,-,N/A,,Overcast,250,2013-07-07 15:55:00
11:15 AM,79.2,73.2,82,30.13,10.0,West,3.5,-,N/A,,Overcast,270,2013-07-07 16:15:00
11:35 AM,80.2,74.1,82,30.13,10.0,Calm,Calm,-,N/A,,Overcast,0,2013-07-07 16:35:00
11:55 AM,80.8,72.9,77,30.12,10.0,Calm,Calm,-,N/A,,Mostly Cloudy,0,2013-07-07 16:55:00
12:15 PM,81.3,72.9,75,30.12,10.0,NNW,4.6,-,N/A,,Mostly Cloudy,340,2013-07-07 17:15:00
12:35 PM,81.9,71.6,71,30.11,10.0,Calm,Calm,-,N/A,,Mostly Cloudy,0,2013-07-07 17:35:00
12:55 PM,83.1,72.0,69,30.11,10.0,Calm,Calm,-,N/A,,Scattered Clouds,0,2013-07-07 17:55:00
1:15 PM,83.3,72.1,69,30.11,10.0,Calm,Calm,-,N/A,,Mostly Cloudy,0,2013-07-07 18:15:00
1:35 PM,83.8,72.3,68,30.10,10.0,Calm,Calm,-,N/A,,Mostly Cloudy,0,2013-07-07 18:35:00
1:55 PM,84.7,70.9,63,30.10,10.0,Calm,Calm,-,N/A,,Scattered Clouds,0,2013-07-07 18:55:00
2:15 PM,85.5,70.7,61,30.10,10.0,Calm,Calm,-,N/A,,Scattered Clouds,0,2013-07-07 19:15:00
2:35 PM,85.6,70.5,60,30.09,10.0,Calm,Calm,-,N/A,,Mostly Cloudy,0,2013-07-07 19:35:00
2:55 PM,86.0,69.6,58,30.09,10.0,Calm,Calm,-,N/A,,Mostly Cloudy,0,2013-07-07 19:55:00
3:15 PM,86.9,70.2,57,30.08,10.0,SW,3.5,-,N/A,,Mostly Cloudy,230,2013-07-07 20:15:00
3:35 PM,86.9,68.0,53,30.08,10.0,SE,3.5,-,N/A,,Scattered Clouds,140,2013-07-07 20:35:00
3:55 PM,86.9,68.7,55,30.07,10.0,SSE,6.9,-,N/A,,Clear,160,2013-07-07 20:55:00
4:15 PM,86.9,68.5,54,30.07,10.0,SW,4.6,-,N/A,,Clear,230,2013-07-07 21:15:00
4:35 PM,87.4,70.2,56,30.07,10.0,Calm,Calm,-,N/A,,Clear,0,2013-07-07 21:35:00
4:55 PM,87.1,70.2,57,30.06,10.0,South,4.6,-,N/A,,Clear,180,2013-07-07 21:55:00
5:15 PM,86.7,70.2,58,30.05,10.0,South,4.6,-,N/A,,Clear,170,2013-07-07 22:15:00
5:35 PM,86.9,70.7,58,30.05,10.0,South,5.8,-,N/A,,Clear,190,2013-07-07 22:35:00
5:55 PM,86.9,70.5,58,30.05,10.0,South,3.5,-,N/A,,Clear,170,2013-07-07 22:55:00
6:15 PM,86.5,70.3,58,30.05,10.0,SW,3.5,-,N/A,,Clear,220,2013-07-07 23:15:00
6:35 PM,86.0,70.5,60,30.05,10.0,SSW,4.6,-,N/A,,Clear,200,2013-07-07 23:35:00
6:55 PM,85.3,72.5,65,30.06,10.0,SW,3.5,-,N/A,,Clear,230,2013-07-07 23:55:00
7:15 PM,85.1,70.7,62,30.06,10.0,Calm,Calm,-,N/A,,Clear,0,2013-07-08 00:15:00
7:35 PM,83.3,71.8,68,30.07,10.0,Calm,Calm,-,N/A,,Clear,0,2013-07-08 00:35:00
7:55 PM,82.6,72.1,71,30.07,10.0,Calm,Calm,-,N/A,,Clear,0,2013-07-08 00:55:00
8:15 PM,81.1,71.8,73,30.07,10.0,Calm,Calm,-,N/A,,Clear,0,2013-07-08 01:15:00
8:35 PM,79.2,73.2,82,30.07,10.0,Calm,Calm,-,N/A,,Clear,0,2013-07-08 01:35:00
8:55 PM,78.4,73.6,85,30.08,10.0,Calm,Calm,-,N/A,,Clear,0,2013-07-08 01:55:00
9:15 PM,77.0,73.8,90,30.09,10.0,Calm,Calm,-,N/A,,Clear,0,2013-07-08 02:15:00
9:35 PM,76.3,73.4,91,30.09,10.0,Calm,Calm,-,N/A,,Clear,0,2013-07-08 02:35:00
9:55 PM,76.6,73.4,90,30.10,10.0,Calm,Calm,-,N/A,,Clear,0,2013-07-08 02:55:00
10:15 PM,75.6,73.2,92,30.11,10.0,Calm,Calm,-,N/A,,Clear,0,2013-07-08 03:15:00
10:35 PM,74.3,72.9,95,30.10,10.0,Calm,Calm,-,N/A,,Clear,0,2013-07-08 03:35:00
10:55 PM,74.5,73.2,96,30.11,10.0,Calm,Calm,-,N/A,,Clear,0,2013-07-08 03:55:00
11:15 PM,75.0,73.6,95,30.11,10.0,Calm,Calm,-,N/A,,Clear,0,2013-07-08 04:15:00
11:35 PM,74.1,73.2,97,30.11,10.0,Calm,Calm,-,N/A,,Clear,0,2013-07-08 04:35:00
11:55 PM,72.9,72.7,99,30.11,5.0,Calm,Calm,-,N/A,,Clear,0,2013-07-08 04:55:00